149  
ASUS42 KFFC 150610  
RWRGA  
WEATHER ROUNDUP FOR GEORGIA  
NATIONAL WEATHER SERVICE PEACHTREE CITY GA  
200 AM EDT SUN SEP 15 2019  
 
NOTE: "FAIR" INDICATES FEW OR NO CLOUDS BELOW 12,000 FEET WITH NO  
SIGNIFICANT WEATHER AND/OR S TO VISIBILITY
.  
 
* = USE WITH CAUTION. THE STATIONS MARKED WITH AN ASTERISK MAY NOT  
REPORT WEATHER SUCH AS PRECIPITATION, FOG, OR THUNDER AND ARE NOT  
QUALITY CONTROLLED BY NWS.  
 
THE REMARK "TC" DENOTES TEMPERATURE READING IN DEGREES CELSIUS.  
 
GAZ001>058-150700-  
NORTH GEORGIA  
 
CITY SKY/WX TMP DP RH WIND PRES REMARKS
 
ATLANTA FAIR 75 66 73 E7 30.18S  
6HR MIN TEMP: 75; 6HR MAX TEMP: 82;  
 
ATHENS FAIR 70 67 90 NE3 30.18F  
6HR MIN TEMP: 70; 6HR MAX TEMP: 80;  
 
CHAMBLEE FAIR 71 66 84 VRB3 30.19S  
6HR MIN TEMP: 71; 6HR MAX TEMP: 80;  
 
PEACHTREE CITY FAIR 73 69 87 CALM 30.18S  
6HR MIN TEMP: 72; 6HR MAX TEMP: 83;  
 
ROME FAIR 72 69 90 NW3 30.17F  
6HR MIN TEMP: 72; 6HR MAX TEMP: 83;  
 
WEST ATLANTA FAIR 72 68 87 NE3 30.18S  
6HR MIN TEMP: 72; 6HR MAX TEMP: 83;  
 
GAINESVILLE FAIR 71 67 87 NE7 30.22F  
6HR MIN TEMP: 71; 6HR MAX TEMP: 74; 6HR PCP: TRACE;  
 
CARTERSVILLE FAIR 73 67 81 CALM 30.19S  
6HR MIN TEMP: 73; 6HR MAX TEMP: 80;  
 
 
CITY SKY/WX TMP DP RH WIND PRES REMARKS
 
LAWRENCEVILLE* FAIR 70 68 93 CALM 30.19F  
MARIETTA FAIR 72 67 84 CALM 30.19S  
KENNESAW* FAIR 71 68 90 CALM 30.20S  
CANTON* FAIR 70 70 100 CALM 30.22R  
BLAIRSVILLE* FAIR 64 64 98 CALM 30.26F FOG  

 
 
GAZ059>098-102>109-150700-  
CENTRAL GEORGIA  
 
CITY SKY/WX TMP DP RH WIND PRES REMARKS
 
AUGUSTA-BUSH FAIR 73 70 90 CALM 30.13F  
6HR MIN TEMP: 73; 6HR MAX TEMP: 82;  
 
AUGUSTA-DANIEL FAIR 76 69 79 N7 30.15S  
6HR MIN TEMP: 76; 6HR MAX TEMP: 84;  
 
COLUMBUS FAIR 78 68 71 E8 30.12S  
6HR MIN TEMP: 78; 6HR MAX TEMP: 86;  
 
MACON FAIR 73 68 84 NE7 30.13S  
6HR MIN TEMP: 71; 6HR MAX TEMP: 82;  
 
ROBINS AFB CLEAR 73 70 89 CALM 30.12S  
 
 
CITY SKY/WX TMP DP RH WIND PRES REMARKS
 
LAGRANGE* FAIR 74 69 85 CALM 30.15S  
SYLVANIA* N/A 73 72 94 CALM 30.12S  
MILLEDGEVILLE* FAIR 77 70 78 NE3 30.15F  

 
 
GAZ099>101-110>166-150700-  
SOUTH GEORGIA  
 
CITY SKY/WX TMP DP RH WIND PRES REMARKS
 
SAVANNAH FAIR 74 74 100 NE5 30.09F  
6HR MIN TEMP: 74; 6HR MAX TEMP: 80;  
 
VALDOSTA FAIR 75 72 90 NE7 30.06F  
6HR MIN TEMP: 75; 6HR MAX TEMP: 82;  
 
ALMA FAIR 73 71 93 VRB3 30.08F  
6HR MIN TEMP: 73; 6HR MAX TEMP: 78;  
 
ST SIMONS MOCLDY 82 74 76 NE12 30.04F  
6HR MIN TEMP: 82; 6HR MAX TEMP: 83;  
 
FT STEWART FAIR 73 72 96 NE5 30.06F  
ALBANY FAIR 77 70 79 NE7 30.10F  
HUNTER AFB FAIR 76 73 91 NE6 30.06F  
MOODY AFB FAIR 73 73 100 NE5 30.06F  
BRUNSWICK MOCLDY 79 76 90 NE8 30.05F  
 
 
CITY SKY/WX TMP DP RH WIND PRES REMARKS
 
BAINBRIDGE* FAIR 75 72 89 E5 30.07F  
MOULTRIE* FAIR 73 72 94 CALM 30.08F  
VIDALIA* FAIR 73 70 88 NE5 30.11S  
WAYCROSS* FAIR 74 69 84 NE5 30.08S  
DOUGLAS* FAIR 73 72 95 NE7 30.10F  

 
 
 
CLICK HERE TO GO TO PREVIOUS BULLETINS.

The Nexlab GA Page Main Text Page